| time (UTC) | temp F | wind direction | speed knots | gust knots | rain 1hr in | rain 24hr in | rain mn in | humidity % | barometer mb |
| 20260505225803 | 53 | 172 | 0.0 | 0.0 | 0.00 | 0.00 | 0.00 | 91 | 1017.3 |
| 20260505225301 | 53 | 172 | 0.0 | 0.0 | 0.00 | 0.00 | 0.00 | 91 | 1017.3 |
| 20260505224755 | 53 | 172 | 0.0 | 0.0 | 0.00 | 0.00 | 0.00 | 91 | 1017.4 |
| 20260505224254 | 53 | 172 | 0.0 | 0.0 | 0.00 | 0.00 | 0.00 | 91 | 1017.3 |
| 20260505223751 | 54 | 172 | 0.0 | 0.0 | 0.00 | 0.00 | 0.00 | 91 | 1017.5 |
| 20260505223247 | 54 | 172 | 0.0 | 0.0 | 0.00 | 0.00 | 0.00 | 91 | 1017.5 |
| 20260505222743 | 54 | 170 | 0.0 | 0.0 | 0.00 | 0.00 | 0.00 | 91 | 1017.6 |
| 20260505222240 | 54 | 172 | 0.0 | 0.0 | 0.00 | 0.00 | 0.00 | 90 | 1017.5 |
| 20260505221737 | 54 | 171 | 0.0 | 0.0 | 0.00 | 0.00 | 0.00 | 90 | 1017.4 |
| 20260505221233 | 54 | 172 | 0.0 | 0.0 | 0.00 | 0.00 | 0.00 | 90 | 1017.6 |
| 20260505220730 | 54 | 170 | 0.0 | 0.0 | 0.00 | 0.00 | 0.00 | 90 | 1017.6 |
| 20260505220228 | 54 | 170 | 0.0 | 0.0 | 0.00 | 0.00 | 0.00 | 89 | 1017.8 |
| 20260505215726 | 54 | 172 | 0.0 | 0.0 | 0.00 | 0.03 | 0.03 | 89 | 1017.6 |
| 20260505215223 | 55 | 172 | 0.0 | 0.0 | 0.00 | 0.03 | 0.03 | 89 | 1017.6 |
| 20260505214721 | 55 | 175 | 0.0 | 0.0 | 0.00 | 0.03 | 0.03 | 89 | 1017.5 |
| 20260505214218 | 54 | 172 | 0.0 | 0.0 | 0.00 | 0.03 | 0.03 | 89 | 1017.8 |
| 20260505213715 | 55 | 172 | 0.0 | 0.0 | 0.00 | 0.03 | 0.03 | 89 | 1017.5 |
| 20260505213212 | 54 | 171 | 0.0 | 0.0 | 0.00 | 0.03 | 0.03 | 89 | 1017.9 |
| 20260505212708 | 54 | 172 | 0.0 | 0.0 | 0.00 | 0.03 | 0.03 | 88 | 1017.7 |
| 20260505212206 | 55 | 171 | 0.0 | 0.0 | 0.00 | 0.03 | 0.03 | 88 | 1017.7 |
| 20260505211703 | 55 | 171 | 0.0 | 0.0 | 0.00 | 0.03 | 0.03 | 88 | 1017.5 |
| 20260505211200 | 55 | 174 | 0.0 | 0.0 | 0.00 | 0.03 | 0.03 | 87 | 1017.6 |
| 20260505210656 | 55 | 173 | 0.0 | 0.0 | 0.00 | 0.03 | 0.03 | 87 | 1017.4 |
| 20260505210153 | 55 | 174 | 0.0 | 0.0 | 0.00 | 0.03 | 0.03 | 86 | 1017.2 |
| 20260505205651 | 56 | 172 | 0.0 | 0.0 | 0.00 | 0.03 | 0.03 | 86 | 1017.4 |
| 20260505205149 | 56 | 171 | 0.0 | 0.0 | 0.00 | 0.03 | 0.03 | 86 | 1017.2 |
| 20260505204645 | 56 | 170 | 0.0 | 0.0 | 0.00 | 0.03 | 0.03 | 86 | 1017.1 |
| 20260505204143 | 56 | 172 | 0.0 | 0.0 | 0.00 | 0.03 | 0.03 | 86 | 1017.1 |
| 20260505203640 | 56 | 171 | 0.0 | 0.0 | 0.00 | 0.03 | 0.03 | 86 | 1017.4 |
| 20260505203137 | 56 | 177 | 0.0 | 0.0 | 0.00 | 0.03 | 0.03 | 86 | 1017.1 |
| 20260505202632 | 56 | 175 | 0.0 | 0.0 | 0.00 | 0.03 | 0.03 | 86 | 1017.4 |
| 20260505202128 | 56 | 174 | 0.0 | 0.0 | 0.00 | 0.03 | 0.03 | 86 | 1017.5 |
| 20260505201625 | 56 | 174 | 0.0 | 0.0 | 0.00 | 0.03 | 0.03 | 85 | 1017.5 |
| 20260505201124 | 56 | 174 | 0.0 | 0.0 | 0.00 | 0.03 | 0.03 | 85 | 1017.2 |
| 20260505200621 | 57 | 172 | 0.0 | 0.0 | 0.00 | 0.03 | 0.03 | 85 | 1017.4 |
| 20260505200118 | 57 | 172 | 0.0 | 0.0 | 0.00 | 0.03 | 0.03 | 85 | 1017.4 |
| 20260505195614 | 57 | 175 | 0.0 | 0.0 | 0.00 | 0.03 | 0.03 | 85 | 1017.5 |
| 20260505195111 | 57 | 176 | 0.0 | 0.0 | 0.00 | 0.03 | 0.03 | 84 | 1017.4 |
| 20260505194608 | 57 | 176 | 0.0 | 0.0 | 0.00 | 0.03 | 0.03 | 84 | 1017.4 |
| 20260505194104 | 57 | 176 | 2.6 | 2.6 | 0.00 | 0.03 | 0.03 | 84 | 1017.3 |
| 20260505193601 | 57 | 177 | 0.0 | 0.9 | 0.00 | 0.03 | 0.03 | 85 | 1017.4 |
| 20260505193058 | 57 | 175 | 0.0 | 0.0 | 0.00 | 0.03 | 0.03 | 84 | 1017.2 |
| 20260505192557 | 57 | 182 | 1.7 | 1.7 | 0.00 | 0.03 | 0.03 | 84 | 1017.5 |
| 20260505192053 | 57 | 179 | 0.9 | 0.9 | 0.00 | 0.03 | 0.03 | 84 | 1017.3 |
| 20260505191546 | 57 | 184 | 0.9 | 0.9 | 0.00 | 0.03 | 0.03 | 84 | 1017.5 |
| 20260505191044 | 58 | 181 | 0.9 | 0.9 | 0.00 | 0.03 | 0.03 | 84 | 1017.6 |
| 20260505190538 | 58 | 181 | 0.9 | 2.6 | 0.00 | 0.03 | 0.03 | 84 | 1017.4 |
| 20260505190034 | 58 | 174 | 0.9 | 1.7 | 0.00 | 0.03 | 0.03 | 83 | 1017.5 |
| 20260505185531 | 58 | 174 | 0.0 | 0.9 | 0.00 | 0.03 | 0.03 | 83 | 1017.4 |
| 20260505185028 | 58 | 173 | 0.9 | 0.9 | 0.00 | 0.03 | 0.03 | 83 | 1017.0 |
| 20260505184524 | 58 | 168 | 0.9 | 1.7 | 0.00 | 0.03 | 0.03 | 83 | 1017.3 |
| 20260505184021 | 58 | 173 | 1.7 | 1.7 | 0.00 | 0.03 | 0.03 | 83 | 1017.1 |
| 20260505183512 | 58 | 185 | 1.7 | 1.7 | 0.00 | 0.03 | 0.03 | 82 | 1017.1 |
| 20260505183009 | 58 | 178 | 1.7 | 2.6 | 0.00 | 0.03 | 0.03 | 82 | 1017.0 |
| 20260505182506 | 58 | 172 | 2.6 | 2.6 | 0.00 | 0.03 | 0.03 | 82 | 1016.9 |
| 20260505182002 | 58 | 178 | 0.9 | 2.6 | 0.00 | 0.03 | 0.03 | 82 | 1016.6 |
| 20260505181459 | 58 | 171 | 0.9 | 0.9 | 0.00 | 0.03 | 0.03 | 82 | 1016.7 |
| 20260505180956 | 58 | 185 | 0.9 | 1.7 | 0.00 | 0.03 | 0.03 | 82 | 1016.5 |
| 20260505180452 | 58 | 183 | 2.6 | 5.2 | 0.00 | 0.03 | 0.03 | 82 | 1016.6 |
| 20260505175949 | 58 | 183 | 0.0 | 0.0 | 0.00 | 0.03 | 0.03 | 82 | 1016.6 |
| 20260505175445 | 58 | 175 | 0.0 | 0.0 | 0.00 | 0.03 | 0.03 | 81 | 1016.5 |
| 20260505174942 | 58 | 177 | 0.9 | 0.9 | 0.00 | 0.03 | 0.03 | 81 | 1016.5 |
| 20260505174439 | 59 | 173 | 0.0 | 0.0 | 0.00 | 0.03 | 0.03 | 81 | 1016.3 |
| 20260505173935 | 59 | 185 | 0.9 | 0.9 | 0.00 | 0.03 | 0.03 | 81 | 1016.5 |
| 20260505173432 | 59 | 185 | 0.9 | 1.7 | 0.00 | 0.03 | 0.03 | 81 | 1016.4 |
| 20260505172929 | 59 | 182 | 0.0 | 0.0 | 0.00 | 0.03 | 0.03 | 81 | 1016.1 |
| 20260505172428 | 59 | 178 | 0.0 | 0.0 | 0.00 | 0.03 | 0.03 | 80 | 1016.1 |
| 20260505171926 | 59 | 178 | 0.0 | 0.0 | 0.00 | 0.03 | 0.03 | 80 | 1016.1 |
| 20260505171424 | 59 | 179 | 0.0 | 0.0 | 0.00 | 0.03 | 0.03 | 79 | 1016.2 |
| 20260505170920 | 60 | 179 | 0.0 | 0.0 | 0.00 | 0.03 | 0.03 | 79 | 1016.3 |
| 20260505170417 | 60 | 182 | 0.9 | 0.9 | 0.00 | 0.03 | 0.03 | 79 | 1016.2 |
| 20260505165912 | 60 | 173 | 0.0 | 0.9 | 0.00 | 0.03 | 0.03 | 78 | 1015.7 |
| 20260505165409 | 60 | 178 | 0.0 | 0.9 | 0.00 | 0.03 | 0.03 | 77 | 1015.6 |
| 20260505164904 | 60 | 180 | 0.0 | 0.0 | 0.00 | 0.03 | 0.03 | 77 | 1015.8 |
| 20260505164401 | 60 | 183 | 1.7 | 1.7 | 0.00 | 0.03 | 0.03 | 77 | 1015.6 |
| 20260505163859 | 60 | 197 | 1.7 | 1.7 | 0.00 | 0.03 | 0.03 | 76 | 1015.6 |
| 20260505163358 | 61 | 191 | 1.7 | 2.6 | 0.00 | 0.03 | 0.03 | 76 | 1015.6 |
| 20260505162856 | 61 | 182 | 0.0 | 0.9 | 0.00 | 0.03 | 0.03 | 75 | 1015.7 |
| 20260505162351 | 61 | 179 | 0.9 | 0.9 | 0.00 | 0.03 | 0.03 | 74 | 1015.8 |
| 20260505161849 | 61 | 175 | 0.9 | 0.9 | 0.00 | 0.03 | 0.03 | 73 | 1015.4 |
| 20260505161346 | 61 | 170 | 1.7 | 1.7 | 0.00 | 0.03 | 0.03 | 73 | 1015.5 |
| 20260505160843 | 61 | 180 | 0.0 | 0.9 | 0.00 | 0.03 | 0.03 | 72 | 1015.3 |
| 20260505160341 | 61 | 195 | 0.9 | 0.9 | 0.00 | 0.03 | 0.03 | 71 | 1015.4 |
| 20260505153320 | 63 | 198 | 1.7 | 2.6 | 0.00 | 0.03 | 0.03 | 67 | 1015.1 |
| 20260505152816 | 64 | 232 | 1.7 | 1.7 | 0.00 | 0.03 | 0.03 | 66 | 1014.9 |
| 20260505152314 | 64 | 227 | 1.7 | 2.6 | 0.00 | 0.03 | 0.03 | 66 | 1014.8 |
| 20260505151808 | 64 | 186 | 0.9 | 1.7 | 0.00 | 0.03 | 0.03 | 65 | 1014.6 |
| 20260505151305 | 64 | 177 | 0.9 | 0.9 | 0.00 | 0.03 | 0.03 | 64 | 1015.0 |
| 20260505150802 | 64 | 213 | 0.9 | 1.7 | 0.00 | 0.03 | 0.03 | 64 | 1015.0 |
| 20260505150259 | 65 | 217 | 2.6 | 2.6 | 0.00 | 0.03 | 0.03 | 63 | 1014.7 |
| 20260505140223 | 64 | 176 | 0.0 | 0.0 | 0.00 | 0.03 | 0.03 | 63 | 1014.2 |
| 20260505130147 | 66 | 269 | 1.7 | 2.6 | 0.00 | 0.03 | 0.03 | 70 | 1014.1 |
| 20260505124637 | 68 | 343 | 0.9 | 1.7 | 0.00 | 0.03 | 0.03 | 65 | 1014.1 |
| 20260505124134 | 69 | 354 | 4.3 | 5.2 | 0.00 | 0.03 | 0.03 | 61 | 1013.9 |
| 20260505123629 | 68 | 228 | 0.0 | 0.9 | 0.00 | 0.03 | 0.03 | 63 | 1014.1 |
| 20260505123126 | 68 | 265 | 0.0 | 0.9 | 0.00 | 0.03 | 0.03 | 62 | 1014.2 |
| 20260505122623 | 68 | 32 | 0.0 | 0.9 | 0.00 | 0.03 | 0.03 | 61 | 1014.3 |
| 20260505122121 | 68 | 333 | 1.7 | 4.3 | 0.00 | 0.03 | 0.03 | 60 | 1014.0 |
| 20260505121617 | 67 | 13 | 0.0 | 0.0 | 0.00 | 0.03 | 0.03 | 63 | 1014.2 |
| 20260505121114 | 68 | 23 | 0.9 | 1.7 | 0.00 | 0.03 | 0.03 | 63 | 1014.2 |
| 20260505120610 | 68 | 261 | 0.9 | 1.7 | 0.00 | 0.03 | 0.03 | 59 | 1014.3 |
| 20260505120106 | 68 | 348 | 2.6 | 6.1 | 0.00 | 0.03 | 0.03 | 61 | 1014.0 |
| 20260505115600 | 70 | 272 | 0.0 | 0.9 | 0.00 | 0.03 | 0.03 | 59 | 1014.3 |
| 20260505115058 | 68 | 6 | 0.0 | 0.0 | 0.00 | 0.03 | 0.03 | 59 | 1014.2 |
| 20260505114555 | 69 | 0 | 3.5 | 5.2 | 0.00 | 0.03 | 0.03 | 58 | 1014.2 |
| 20260505114051 | 69 | 214 | 0.0 | 0.9 | 0.00 | 0.03 | 0.03 | 59 | 1014.4 |
| 20260505113547 | 68 | 223 | 0.0 | 0.0 | 0.00 | 0.03 | 0.03 | 59 | 1014.3 |
| 20260505113044 | 68 | 247 | 1.7 | 2.6 | 0.00 | 0.03 | 0.03 | 59 | 1014.6 |
| 20260505112540 | 68 | 3 | 0.0 | 0.9 | 0.00 | 0.03 | 0.03 | 60 | 1014.6 |
| 20260505112039 | 68 | 207 | 0.0 | 0.9 | 0.00 | 0.03 | 0.03 | 63 | 1014.7 |
| 20260505111532 | 66 | 267 | 0.0 | 0.9 | 0.00 | 0.03 | 0.03 | 64 | 1014.7 |
| 20260505111029 | 67 | 261 | 2.6 | 2.6 | 0.00 | 0.03 | 0.03 | 61 | 1014.7 |
| 20260505110525 | 66 | 354 | 0.0 | 0.0 | 0.00 | 0.03 | 0.03 | 65 | 1014.8 |
| 20260505101958 | 67 | 280 | 0.9 | 1.7 | 0.00 | 0.03 | 0.03 | 65 | 1015.4 |
| 20260505101455 | 66 | 58 | 0.0 | 0.0 | 0.00 | 0.03 | 0.03 | 66 | 1015.3 |
| 20260505100952 | 67 | 30 | 0.0 | 0.9 | 0.00 | 0.03 | 0.03 | 66 | 1015.3 |
| 20260505100450 | 67 | 349 | 0.0 | 0.0 | 0.00 | 0.03 | 0.03 | 66 | 1015.2 |
| 20260505095945 | 66 | 206 | 1.7 | 2.6 | 0.00 | 0.03 | 0.03 | 68 | 1015.5 |
| 20260505095442 | 65 | 33 | 0.0 | 0.0 | 0.00 | 0.03 | 0.03 | 67 | 1015.3 |
| 20260505094938 | 67 | 13 | 0.0 | 0.0 | 0.00 | 0.03 | 0.03 | 66 | 1015.4 |
| 20260505094435 | 66 | 0 | 0.9 | 1.7 | 0.00 | 0.03 | 0.03 | 67 | 1015.6 |
| 20260505093931 | 66 | 51 | 1.7 | 1.7 | 0.00 | 0.03 | 0.03 | 67 | 1015.3 |
| 20260505093428 | 66 | 321 | 0.0 | 0.9 | 0.00 | 0.03 | 0.03 | 69 | 1015.5 |
| 20260505092925 | 65 | 263 | 0.0 | 0.0 | 0.00 | 0.03 | 0.03 | 70 | 1015.2 |
| 20260505092423 | 64 | 55 | 1.7 | 1.7 | 0.00 | 0.03 | 0.03 | 70 | 1015.5 |
| 20260505091920 | 64 | 43 | 2.6 | 4.3 | 0.00 | 0.03 | 0.03 | 69 | 1015.4 |
| 20260505091418 | 65 | 324 | 1.7 | 2.6 | 0.00 | 0.03 | 0.03 | 69 | 1015.6 |
| 20260505090916 | 65 | 55 | 0.0 | 0.0 | 0.00 | 0.03 | 0.03 | 69 | 1015.6 |
| 20260505090414 | 65 | 199 | 0.0 | 0.9 | 0.00 | 0.03 | 0.03 | 70 | 1015.5 |
| 20260505085911 | 64 | 6 | 0.9 | 0.9 | 0.00 | 0.03 | 0.03 | 72 | 1015.5 |
| 20260505085409 | 64 | 340 | 0.9 | 1.7 | 0.00 | 0.03 | 0.03 | 71 | 1015.6 |
| 20260505084907 | 65 | 298 | 0.9 | 1.7 | 0.00 | 0.03 | 0.03 | 70 | 1015.4 |
| 20260505084405 | 64 | 238 | 0.0 | 0.9 | 0.00 | 0.03 | 0.03 | 70 | 1015.6 |
| 20260505083902 | 63 | 46 | 0.0 | 0.9 | 0.00 | 0.03 | 0.03 | 72 | 1015.4 |
| 20260505083400 | 64 | 9 | 0.9 | 1.7 | 0.00 | 0.03 | 0.03 | 72 | 1015.5 |
| 20260505082855 | 64 | 6 | 0.0 | 0.0 | 0.00 | 0.03 | 0.03 | 73 | 1015.6 |
| 20260505082352 | 62 | 51 | 0.0 | 0.0 | 0.00 | 0.03 | 0.03 | 76 | 1015.7 |
| 20260505081849 | 62 | 56 | 0.9 | 1.7 | 0.00 | 0.03 | 0.03 | 77 | 1015.5 |
| 20260505081345 | 62 | 291 | 0.9 | 1.7 | 0.00 | 0.03 | 0.03 | 79 | 1015.7 |
| 20260505080842 | 61 | 35 | 0.9 | 0.9 | 0.00 | 0.03 | 0.03 | 82 | 1015.5 |
| 20260505080338 | 60 | 15 | 0.0 | 0.0 | 0.00 | 0.03 | 0.03 | 86 | 1015.4 |
| 20260505075833 | 60 | 349 | 0.9 | 0.9 | 0.00 | 0.03 | 0.03 | 89 | 1015.6 |
| 20260505075331 | 59 | 25 | 0.0 | 0.0 | 0.00 | 0.03 | 0.03 | 92 | 1015.2 |
| 20260505074828 | 59 | 350 | 0.9 | 1.7 | 0.00 | 0.03 | 0.03 | 93 | 1015.3 |
| 20260505074325 | 58 | 325 | 0.0 | 0.9 | 0.00 | 0.03 | 0.03 | 94 | 1015.6 |
| 20260505073822 | 58 | 344 | 0.9 | 1.7 | 0.00 | 0.03 | 0.03 | 95 | 1015.6 |
| 20260505073320 | 56 | 19 | 0.9 | 0.9 | 0.00 | 0.03 | 0.03 | 96 | 1015.6 |
| 20260505072817 | 57 | 52 | 0.0 | 0.0 | 0.00 | 0.03 | 0.03 | 96 | 1015.4 |
| 20260505072313 | 56 | 52 | 0.0 | 0.0 | 0.00 | 0.03 | 0.03 | 97 | 1015.2 |
| 20260505071809 | 56 | 184 | 0.0 | 0.0 | 0.00 | 0.03 | 0.03 | 97 | 1015.5 |
| 20260505071306 | 56 | 191 | 0.0 | 0.0 | 0.00 | 0.03 | 0.03 | 96 | 1015.5 |
| 20260505070804 | 55 | 191 | 0.0 | 0.0 | 0.07 | 0.03 | 0.03 | 97 | 1015.2 |
| 20260505070300 | 55 | 191 | 0.0 | 0.0 | 0.07 | 0.03 | 0.03 | 97 | 1015.4 |
| 20260505065755 | 55 | 191 | 0.0 | 0.0 | 0.00 | 0.02 | 0.02 | 97 | 1015.2 |
| 20260505065252 | 56 | 191 | 0.0 | 0.0 | 0.00 | 0.02 | 0.02 | 97 | 1015.0 |
| 20260505064749 | 55 | 197 | 0.0 | 0.0 | 0.00 | 0.02 | 0.02 | 97 | 1015.0 |
| 20260505064247 | 54 | 197 | 0.0 | 0.0 | 0.00 | 0.02 | 0.02 | 97 | 1015.0 |
| 20260505063744 | 53 | 197 | 0.0 | 0.0 | 0.00 | 0.02 | 0.02 | 97 | 1014.9 |
| 20260505063240 | 52 | 189 | 0.0 | 0.0 | 0.00 | 0.02 | 0.02 | 97 | 1015.0 |
| 20260505062737 | 52 | 109 | 0.0 | 0.0 | 0.00 | 0.02 | 0.02 | 97 | 1014.7 |
| 20260505062234 | 52 | 109 | 0.0 | 0.0 | 0.00 | 0.02 | 0.02 | 97 | 1014.8 |
| 20260505061731 | 51 | 109 | 0.0 | 0.0 | 0.00 | 0.02 | 0.02 | 97 | 1014.6 |
| 20260505061229 | 51 | 109 | 0.0 | 0.0 | 0.00 | 0.02 | 0.02 | 97 | 1014.6 |
| 20260505060726 | 51 | 109 | 0.0 | 0.0 | 0.00 | 0.02 | 0.02 | 97 | 1014.3 |
| 20260505060224 | 51 | 118 | 0.9 | 1.7 | 0.00 | 0.02 | 0.02 | 97 | 1014.4 |
| 20260505055718 | 51 | 174 | 0.0 | 0.0 | 0.00 | 0.02 | 0.02 | 97 | 1014.3 |
| 20260505055215 | 51 | 174 | 0.0 | 0.0 | 0.00 | 0.02 | 0.02 | 97 | 1014.5 |
| 20260505054713 | 50 | 175 | 0.0 | 0.0 | 0.00 | 0.02 | 0.02 | 97 | 1014.6 |
| 20260505054210 | 50 | 174 | 0.0 | 0.0 | 0.00 | 0.02 | 0.02 | 97 | 1014.6 |
| 20260505053709 | 50 | 174 | 0.0 | 0.0 | 0.00 | 0.02 | 0.02 | 97 | 1014.6 |
| 20260505053204 | 50 | 171 | 0.0 | 0.0 | 0.00 | 0.02 | 0.02 | 97 | 1014.3 |
| 20260505052702 | 51 | 170 | 0.0 | 0.0 | 0.00 | 0.02 | 0.02 | 97 | 1014.5 |
| 20260505052158 | 51 | 165 | 0.0 | 0.0 | 0.00 | 0.02 | 0.02 | 97 | 1014.6 |
| 20260505051656 | 50 | 169 | 0.0 | 0.0 | 0.00 | 0.02 | 0.02 | 97 | 1014.4 |
| 20260505051154 | 51 | 175 | 0.0 | 0.0 | 0.00 | 0.02 | 0.02 | 97 | 1014.2 |
| 20260505050651 | 51 | 171 | 0.0 | 0.0 | 0.00 | 0.02 | 0.02 | 97 | 1014.0 |
| 20260505050149 | 51 | 170 | 0.0 | 0.0 | 0.00 | 0.02 | 0.02 | 97 | 1014.1 |
| 20260505041619 | 52 | 171 | 0.0 | 0.0 | 0.00 | 0.02 | 0.02 | 96 | 1013.8 |
| 20260505041116 | 52 | 174 | 0.0 | 0.0 | 0.00 | 0.02 | 0.02 | 96 | 1013.8 |
| 20260505040613 | 52 | 174 | 0.0 | 0.0 | 0.00 | 0.02 | 0.02 | 96 | 1013.5 |
| 20260505040110 | 51 | 165 | 0.0 | 0.0 | 0.00 | 0.02 | 0.02 | 96 | 1013.6 |
| 20260505035607 | 51 | 167 | 0.0 | 0.0 | 0.00 | 0.02 | 0.02 | 96 | 1013.7 |
| 20260505035103 | 51 | 174 | 0.0 | 0.0 | 0.00 | 0.02 | 0.02 | 96 | 1013.6 |
| 20260505034600 | 51 | 175 | 0.0 | 0.0 | 0.00 | 0.02 | 0.02 | 96 | 1013.9 |
| 20260505034056 | 51 | 175 | 0.0 | 0.0 | 0.00 | 0.02 | 0.02 | 96 | 1013.6 |
| 20260505033553 | 51 | 175 | 0.0 | 0.0 | 0.00 | 0.02 | 0.02 | 96 | 1013.5 |
| 20260505033052 | 51 | 175 | 0.0 | 0.0 | 0.00 | 0.02 | 0.02 | 96 | 1013.3 |
| 20260505032550 | 51 | 171 | 0.0 | 0.0 | 0.00 | 0.02 | 0.02 | 96 | 1013.4 |
| 20260505032045 | 51 | 167 | 0.0 | 0.0 | 0.00 | 0.02 | 0.02 | 96 | 1013.4 |
| 20260505031543 | 51 | 166 | 0.0 | 0.0 | 0.00 | 0.02 | 0.02 | 96 | 1013.4 |
| 20260505031039 | 51 | 174 | 0.0 | 0.0 | 0.00 | 0.02 | 0.02 | 96 | 1013.3 |
| 20260505030536 | 51 | 174 | 0.0 | 0.0 | 0.00 | 0.02 | 0.02 | 95 | 1013.4 |
| 20260505030032 | 51 | 174 | 0.0 | 0.0 | 0.00 | 0.02 | 0.02 | 96 | 1013.3 |
| 20260505025528 | 51 | 172 | 0.0 | 0.0 | 0.00 | 0.02 | 0.02 | 95 | 1013.3 |
| 20260505025027 | 51 | 169 | 0.0 | 0.0 | 0.00 | 0.02 | 0.02 | 95 | 1013.3 |
| 20260505024524 | 51 | 169 | 0.0 | 0.0 | 0.00 | 0.02 | 0.02 | 96 | 1013.3 |
| 20260505024021 | 52 | 169 | 0.0 | 0.0 | 0.00 | 0.02 | 0.02 | 95 | 1013.4 |
| 20260505023518 | 52 | 174 | 0.0 | 0.0 | 0.00 | 0.02 | 0.02 | 95 | 1013.4 |
| 20260505023016 | 52 | 174 | 0.0 | 0.0 | 0.00 | 0.02 | 0.02 | 95 | 1013.3 |
| 20260505022513 | 52 | 175 | 0.0 | 0.0 | 0.00 | 0.02 | 0.02 | 96 | 1013.2 |
| 20260505022010 | 52 | 175 | 0.0 | 0.0 | 0.00 | 0.02 | 0.02 | 95 | 1013.4 |
| 20260505021506 | 52 | 175 | 0.0 | 0.0 | 0.00 | 0.02 | 0.02 | 95 | 1013.3 |
| 20260505021003 | 53 | 175 | 0.0 | 0.0 | 0.00 | 0.02 | 0.02 | 95 | 1013.3 |
| 20260505020458 | 53 | 174 | 0.0 | 0.0 | 0.00 | 0.02 | 0.02 | 95 | 1013.2 |
| 20260505015954 | 52 | 170 | 0.0 | 0.0 | 0.00 | 0.02 | 0.02 | 95 | 1013.2 |
| 20260505015452 | 52 | 328 | 0.0 | 0.0 | 0.00 | 0.02 | 0.02 | 95 | 1013.3 |
| 20260505014949 | 52 | 328 | 0.0 | 0.0 | 0.00 | 0.02 | 0.02 | 94 | 1013.0 |
| 20260505014446 | 52 | 328 | 0.0 | 0.0 | 0.00 | 0.02 | 0.02 | 94 | 1013.1 |
| 20260505013943 | 53 | 327 | 0.0 | 0.0 | 0.00 | 0.02 | 0.02 | 94 | 1013.1 |
| 20260505013440 | 53 | 327 | 0.0 | 0.0 | 0.00 | 0.02 | 0.02 | 94 | 1013.2 |
| 20260505012937 | 53 | 327 | 0.0 | 0.0 | 0.00 | 0.02 | 0.02 | 94 | 1013.2 |
| 20260505012435 | 52 | 327 | 0.0 | 0.0 | 0.00 | 0.02 | 0.02 | 94 | 1013.3 |
| 20260505011932 | 53 | 328 | 0.0 | 0.0 | 0.00 | 0.02 | 0.02 | 94 | 1013.6 |
| 20260505011428 | 53 | 328 | 0.0 | 0.0 | 0.00 | 0.02 | 0.02 | 94 | 1013.5 |
| 20260505010925 | 53 | 327 | 0.0 | 0.0 | 0.00 | 0.02 | 0.02 | 93 | 1013.6 |
| 20260505010421 | 53 | 328 | 0.0 | 0.0 | 0.00 | 0.02 | 0.02 | 93 | 1013.6 |
| 20260505005917 | 53 | 327 | 0.0 | 0.0 | 0.00 | 0.02 | 0.02 | 93 | 1013.6 |
| 20260505005414 | 53 | 328 | 0.0 | 0.0 | 0.00 | 0.02 | 0.02 | 93 | 1013.7 |
| 20260505004911 | 53 | 327 | 0.0 | 0.0 | 0.00 | 0.02 | 0.02 | 93 | 1013.7 |
| 20260505004408 | 53 | 327 | 0.0 | 0.0 | 0.00 | 0.02 | 0.02 | 93 | 1013.8 |
| 20260505003905 | 53 | 328 | 0.0 | 0.0 | 0.00 | 0.02 | 0.02 | 92 | 1013.9 |
| 20260505003402 | 53 | 328 | 0.0 | 0.0 | 0.00 | 0.02 | 0.02 | 92 | 1013.8 |
| 20260505002858 | 54 | 328 | 0.0 | 0.0 | 0.00 | 0.02 | 0.02 | 92 | 1013.6 |
| 20260505002354 | 54 | 328 | 0.0 | 0.0 | 0.00 | 0.02 | 0.02 | 92 | 1013.8 |
| 20260505001853 | 54 | 328 | 0.0 | 0.0 | 0.00 | 0.02 | 0.02 | 92 | 1013.8 |
| 20260505001350 | 55 | 329 | 0.0 | 0.0 | 0.00 | 0.02 | 0.02 | 91 | 1013.7 |
| 20260505000847 | 55 | 328 | 0.0 | 0.0 | 0.00 | 0.02 | 0.02 | 91 | 1013.7 |
| 20260505000345 | 55 | 328 | 0.0 | 0.0 | 0.00 | 0.02 | 0.02 | 91 | 1013.7 |
| 20260504235841 | 55 | 328 | 0.0 | 0.0 | 0.00 | 0.02 | 0.02 | 91 | 1013.8 |
| 20260504235338 | 55 | 334 | 0.9 | 1.7 | 0.00 | 0.02 | 0.02 | 91 | 1014.0 |
| 20260504234835 | 55 | 319 | 0.0 | 0.0 | 0.00 | 0.02 | 0.02 | 90 | 1013.8 |
| 20260504234333 | 55 | 314 | 1.7 | 2.6 | 0.00 | 0.02 | 0.02 | 90 | 1013.8 |
| 20260504233829 | 55 | 25 | 0.9 | 0.9 | 0.00 | 0.02 | 0.02 | 90 | 1013.7 |
| 20260504233325 | 54 | 82 | 0.9 | 1.7 | 0.00 | 0.02 | 0.02 | 90 | 1013.7 |
| 20260504232822 | 54 | 340 | 1.7 | 1.7 | 0.00 | 0.02 | 0.02 | 90 | 1013.7 |
| 20260504232319 | 54 | 344 | 0.9 | 1.7 | 0.00 | 0.02 | 0.02 | 90 | 1013.8 |
| 20260504231815 | 54 | 187 | 0.0 | 0.0 | 0.00 | 0.02 | 0.02 | 90 | 1013.8 |
| 20260504231312 | 54 | 186 | 0.0 | 0.0 | 0.00 | 0.02 | 0.02 | 90 | 1013.6 |
| 20260504230808 | 54 | 298 | 0.0 | 0.0 | 0.00 | 0.02 | 0.02 | 90 | 1013.7 |
| 20260504230306 | 55 | 1 | 0.9 | 0.9 | 0.00 | 0.02 | 0.02 | 90 | 1013.7 |